TimePDT,TemperatureF,Dew PointF,Humidity,Sea Level PressureIn,VisibilityMPH,Wind Direction,Wind SpeedMPH,Gust SpeedMPH,PrecipitationIn,Events,Conditions,WindDirDegrees,DateUTC
12:53 AM,66.0,30.9,27,30.01,10.0,North,-9999.0,-,N/A,,Clear,0,2012-10-17 07:53:00
1:53 AM,64.9,30.9,28,30.01,10.0,North,-9999.0,-,N/A,,Clear,0,2012-10-17 08:53:00
2:53 AM,64.9,30.0,27,30.00,10.0,NNW,10.4,-,N/A,,Clear,340,2012-10-17 09:53:00
3:53 AM,64.9,28.9,26,29.97,10.0,NNW,12.7,21.9,N/A,,Clear,340,2012-10-17 10:53:00
4:53 AM,64.9,28.9,26,29.97,10.0,North,11.5,18.4,N/A,,Clear,350,2012-10-17 11:53:00
5:53 AM,64.0,28.0,26,29.96,10.0,NNW,10.4,17.3,N/A,,Clear,340,2012-10-17 12:53:00
6:53 AM,64.9,28.9,26,29.97,10.0,NNW,10.4,21.9,N/A,,Clear,340,2012-10-17 13:53:00
7:53 AM,64.9,28.0,25,29.97,10.0,Variable,3.5,-,N/A,,Clear,0,2012-10-17 14:53:00
8:53 AM,66.9,28.0,23,29.98,10.0,North,17.3,26.5,N/A,,Clear,350,2012-10-17 15:53:00
9:53 AM,70.0,27.0,20,29.98,10.0,North,16.1,25.3,N/A,,Clear,350,2012-10-17 16:53:00
10:53 AM,75.0,27.0,17,29.96,10.0,North,12.7,21.9,N/A,,Clear,350,2012-10-17 17:53:00
11:53 AM,78.1,24.1,14,29.94,10.0,North,16.1,24.2,N/A,,Clear,350,2012-10-17 18:53:00
12:53 PM,82.0,24.1,12,29.92,10.0,North,12.7,19.6,N/A,,Clear,360,2012-10-17 19:53:00
1:53 PM,86.0,19.9,9,29.88,10.0,North,17.3,25.3,N/A,,Clear,360,2012-10-17 20:53:00
2:53 PM,89.1,17.1,7,29.86,10.0,North,18.4,26.5,N/A,,Clear,360,2012-10-17 21:53:00
3:53 PM,90.0,18.0,7,29.85,10.0,North,16.1,26.5,N/A,,Clear,360,2012-10-17 22:53:00
4:53 PM,90.0,21.0,8,29.85,10.0,North,18.4,27.6,N/A,,Clear,360,2012-10-17 23:53:00
5:53 PM,87.1,21.0,9,29.84,10.0,North,9.2,18.4,N/A,,Clear,350,2012-10-18 00:53:00
6:53 PM,82.9,19.0,9,29.86,10.0,NNW,12.7,19.6,N/A,,Clear,340,2012-10-18 01:53:00
7:53 PM,81.0,19.0,10,29.87,10.0,NNW,9.2,-,N/A,,Clear,340,2012-10-18 02:53:00
8:53 PM,79.0,18.0,10,29.88,10.0,NNW,11.5,17.3,N/A,,Clear,340,2012-10-18 03:53:00
9:53 PM,78.1,16.0,10,29.89,10.0,North,12.7,-,N/A,,Clear,350,2012-10-18 04:53:00
10:53 PM,77.0,15.1,10,29.90,10.0,NNW,11.5,18.4,N/A,,Clear,340,2012-10-18 05:53:00
11:53 PM,75.9,15.1,10,29.90,10.0,North,11.5,18.4,N/A,,Clear,350,2012-10-18 06:53:00